Погода в Тхане

Индия     19°12′41″N   72°58′55″E
темп.,
°C
ветер,
м/с
пор.,
м/с
влажн.,
%
обл.,
%
осадки,
мм/ч
давл.,
гПа
погр.,
м
4 июля, пн
пн423:30+27юз6108267 7.3 1004705
02:30+27юз6983100 4.1 1002610
05:30+27юз5884100 8.9 1002542
08:30+27ююз4785100 4.9 1003547
11:30+27ююз4787100 10.1 1003531
14:30+27юз4884100 7.0 1001550
17:30+27юз5884100 9.8 1001595
20:30+27юз51087100 7.1 1002579
5 июля, вт
вт523:30+27юз61087100 14.7 1002653
02:30+26юз5987100 7.9 1001542
05:30+26зюз4891100 17.7 1001467
08:30+26зюз4892100 8.4 1002515
11:30+26зюз5892100 17.2 1002519
14:30+26юз5989100 6.9 1000595
17:30+25юз5989100 13.9 1000589
20:30+25ююз5890100 3.8 1001551
6 июля, ср
ср623:30+26юз4887100 7.0 1002534
02:30+26юз5987100 4.8 1001597
05:30+26юз5985100 8.6 1001608
08:30+27юз698047 3.9 1002744
11:30+29юз797492 7.6 10031009
14:30+29юз797233 3.9 10021079
17:30+28юз797534 7.6 1003982
20:30+27юз6108126 3.2 1004716
7 июля, чт
чт723:30+27юз698233 5.7 1005625
02:30+26юз5985100 4.5 1004625
05:30+26юз5885100 8.9 1004571
08:30+27зюз5881100 3.9 1006752
11:30+28зюз687896 8.4 1006817
14:30+27зюз5881100 4.6 1004721
17:30+27зюз5884100 10.4 1004578
20:30+27з5886100 6.5 1005548
8 июля, пт
пт823:30+26з5984100 11.4 1005584
02:30+26з61084100 4.8 1003670
05:30+26з5984100 9.8 1003614
08:30+27з5883100 4.8 1004608
11:30+27з4783100 10.2 1004568
14:30+26з5889100 11.5 1002524
17:30+25з4892100 23.3 1002504
20:30+25зюз5992100 8.7 1003559